DateTimeUTC,F1_A11,F1_S11,BsB_S11,BsG_S11,BsR_S11,BbsB_S11,BbsG_S11,BbsR_S11,BaB_A11,BaG_A11,BaR_A11,Tu_S11,T_S11,Uu_S11,U_S11,P_S11,T1_A11
2021-06-06T00:00:00Z,00000200,20000000,,,,,,,-000.07,-000.24,-000.11,18.5,25.2,10.3,06.8,0675.2,31.0
2021-06-06T00:01:00Z,00000200,20000000,,,,,,,0000.23,0000.18,-000.21,18.5,25.3,10.3,06.8,0675.2,31.0
2021-06-06T00:02:00Z,00000200,20000000,,,,,,,-000.32,0000.23,0000.24,18.5,25.3,10.3,06.8,0675.2,31.0
2021-06-06T00:03:00Z,00000200,60000000,,,,,,,0001.06,0000.22,0000.46,18.5,25.3,10.3,06.8,0675.2,31.0
2021-06-06T00:04:00Z,00000200,40000000,0001.06,0000.57,0000.25,-000.11,0000.16,0000.13,-000.06,0000.39,0000.11,18.6,25.1,10.2,06.9,0676.1,31.0
2021-06-06T00:05:00Z,00000200,00000000,0000.72,0000.69,0000.71,0000.04,0000.24,0000.39,0000.58,0000.73,0000.85,18.7,25.0,10.2,06.9,0676.2,31.0
2021-06-06T00:06:00Z,00000200,00000000,0001.79,0001.00,0000.44,-000.08,0000.20,0000.66,0000.67,0000.37,0000.06,18.7,25.0,10.2,06.9,0676.2,31.0
2021-06-06T00:07:00Z,00000200,00000000,0000.94,0000.54,0000.54,0000.43,0000.24,0000.25,0000.64,0000.61,0000.20,18.6,25.0,10.2,06.9,0676.2,31.0
2021-06-06T00:08:00Z,00000200,00000000,0001.39,0000.67,0000.24,0000.72,0000.28,0000.12,0000.30,0000.18,0000.09,18.7,25.0,10.1,06.9,0676.2,31.0
2021-06-06T00:09:00Z,00000200,00000000,0000.98,0000.75,0000.41,-000.12,0000.14,0000.36,0000.80,0000.71,0000.48,18.7,25.0,10.2,06.9,0676.2,31.0
2021-06-06T00:10:00Z,00000200,00000000,0000.58,0000.64,0000.30,0000.12,0000.40,0000.15,0000.57,0000.42,0000.48,18.6,25.0,10.2,07.0,0676.2,31.0
2021-06-06T00:11:00Z,00000200,00000000,0000.47,0000.58,0000.65,0000.35,0000.09,0000.33,0000.30,0000.67,0000.34,18.7,25.0,10.1,06.9,0676.2,31.0
2021-06-06T00:12:00Z,00000200,00000000,0001.46,0000.60,0000.34,0000.34,0000.36,0000.06,0000.43,-000.35,0000.31,18.7,25.0,10.1,06.9,0676.2,31.0
2021-06-06T00:13:00Z,00000200,00000000,0001.90,0001.14,0000.30,0000.54,0000.17,0000.11,0000.63,0000.92,0000.49,18.6,25.0,10.1,06.9,0676.2,31.0
2021-06-06T00:14:00Z,00000200,00000000,0001.12,0000.35,0000.26,0000.52,0000.33,0000.21,0000.07,0000.23,0000.13,18.6,24.9,10.1,06.9,0676.2,31.0
2021-06-06T00:15:00Z,00000200,00000000,0000.75,0000.65,0000.63,0000.08,0000.31,0000.34,0001.08,0000.48,0000.18,18.6,24.9,10.1,06.9,0676.2,31.0
2021-06-06T00:16:00Z,00000200,00000000,0000.83,0001.00,0000.61,0000.23,0000.20,-000.00,0000.22,0000.08,0000.87,18.6,24.9,10.1,06.9,0676.2,31.0
2021-06-06T00:17:00Z,00000200,00000000,0001.18,0000.59,0000.43,-000.16,0000.20,0000.03,0000.69,0000.81,0000.23,18.6,24.9,10.1,06.9,0676.2,31.0
2021-06-06T00:18:00Z,00000200,00000000,0001.27,0000.69,0000.27,0000.20,-000.08,0000.02,0000.54,0000.56,0000.25,18.6,24.9,10.0,06.8,0676.2,31.0
2021-06-06T00:19:00Z,00000200,00000000,0001.08,0000.71,0000.26,0000.22,0000.24,0000.23,0000.69,0000.86,0000.49,18.6,24.9,10.0,06.8,0676.2,31.0
2021-06-06T00:20:00Z,00000200,00000000,0000.63,0000.64,0000.65,0000.68,0000.39,0000.35,0000.08,-000.15,0000.15,18.6,24.9,10.1,06.9,0676.2,31.0
2021-06-06T00:21:00Z,00000200,00000000,0001.37,0000.62,0000.31,-000.08,0000.33,-000.18,0001.02,0000.80,0000.71,18.6,24.9,10.1,06.9,0676.2,31.0
2021-06-06T00:22:00Z,00000200,00000000,0000.69,0000.91,0000.26,0000.73,0000.37,0000.09,0000.21,0000.58,0000.04,18.6,24.9,10.1,06.9,0676.2,31.0
2021-06-06T00:23:00Z,00000200,00000000,0001.65,0000.76,0000.41,0000.65,0000.56,-000.03,0000.75,0000.55,0000.68,18.6,24.9,10.0,06.8,0676.2,31.0
2021-06-06T00:24:00Z,00000200,00000000,0000.97,0000.79,0000.56,0000.43,0000.22,0000.23,0000.36,0000.29,0000.28,18.6,24.9,10.1,06.8,0676.3,31.0
2021-06-06T00:25:00Z,00000200,00000000,0001.17,0000.79,0000.54,0000.35,0000.38,0000.28,0000.73,0000.54,0000.23,18.6,24.9,10.1,06.8,0676.3,31.0
2021-06-06T00:26:00Z,00000200,00000000,0000.56,0000.90,0000.60,-000.13,0000.22,0000.13,0000.44,0000.55,0000.45,18.6,24.9,10.1,06.9,0676.3,31.0
2021-06-06T00:27:00Z,00000200,00000000,0001.25,0000.77,0000.31,0000.65,0000.20,0000.13,0000.73,0000.59,0000.44,18.6,24.9,10.1,06.8,0676.3,31.0
2021-06-06T00:28:00Z,00000200,00000000,0001.15,0000.36,0000.51,0000.48,0000.28,0000.35,0000.33,0000.35,0000.16,18.6,24.8,10.0,06.8,0676.3,31.0
2021-06-06T00:29:00Z,00000200,00000000,0000.39,0000.66,0000.43,0000.32,0000.10,0000.01,0000.79,0000.77,0000.54,18.5,24.8,10.2,06.9,0676.2,31.0
2021-06-06T00:30:00Z,00000200,00000000,0001.31,0000.74,0000.76,-000.03,0000.25,0000.24,0000.50,0000.41,0000.47,18.6,24.9,10.2,06.9,0676.2,31.0
2021-06-06T00:31:00Z,00000200,00000000,0001.03,0000.79,0000.35,0000.54,0000.34,-000.04,0000.41,0000.55,0000.23,18.5,24.9,10.2,06.9,0676.2,31.0
2021-06-06T00:32:00Z,00000200,00000000,0001.02,0000.73,0000.28,-000.02,0000.25,0000.41,0000.57,0000.43,0000.30,18.5,24.8,10.1,06.9,0676.2,31.0
2021-06-06T00:33:00Z,00000200,00000000,0001.14,0000.73,0000.47,-000.11,0000.35,0000.34,0000.60,0000.37,0000.20,18.5,24.8,10.1,06.9,0676.2,31.0
2021-06-06T00:34:00Z,00000200,00000000,0000.55,0000.72,0000.20,0000.69,0000.43,0000.08,0000.42,0000.42,0000.56,18.5,24.8,10.0,06.8,0676.2,31.0
2021-06-06T00:35:00Z,00000200,00000000,0000.47,0000.92,0000.52,0000.24,0000.35,0000.44,0000.39,0000.58,0000.07,18.5,24.8,10.0,06.8,0676.2,31.0
2021-06-06T00:36:00Z,00000200,00000000,0000.60,0000.81,0000.14,0000.40,0000.26,0000.03,0000.57,0000.19,0000.60,18.5,24.8,10.0,06.8,0676.2,31.0
2021-06-06T00:37:00Z,00000200,00000000,0000.76,0000.62,0000.42,0000.19,0000.10,0000.01,0000.49,0000.50,-000.02,18.5,24.8,10.0,06.8,0676.1,31.0
2021-06-06T00:38:00Z,00000200,00000000,0000.68,0000.75,0000.36,0000.06,0000.05,0000.44,0000.32,0000.39,0000.50,18.5,24.8,09.9,06.8,0676.2,31.0
2021-06-06T00:39:00Z,00000200,00000000,0000.23,0000.63,0000.51,0000.40,0000.32,-000.02,0000.29,0000.19,0000.37,18.5,24.8,09.7,06.6,0676.2,31.0
2021-06-06T00:40:00Z,00000200,00000000,0001.08,0000.64,0000.38,0000.28,0000.15,0000.10,0000.54,0000.37,0000.14,18.5,24.8,09.8,06.7,0676.2,31.0
2021-06-06T00:41:00Z,00000200,00000000,0000.53,0000.63,0000.23,0000.34,0000.05,0000.03,0000.25,0000.34,0000.41,18.5,24.8,09.8,06.7,0676.2,31.0
2021-06-06T00:42:00Z,00000200,00000000,0000.78,0000.68,0000.58,0000.21,0000.32,0000.01,0000.38,0000.80,0000.32,18.5,24.8,09.8,06.7,0676.2,31.0
2021-06-06T00:43:00Z,00000200,00000000,0000.58,0000.76,0000.60,-000.33,0000.17,0000.46,0000.53,0000.18,0000.14,18.5,24.8,09.7,06.6,0676.2,31.0
2021-06-06T00:44:00Z,00000200,00000000,0000.97,0000.57,0000.37,0000.29,0000.44,-000.00,0000.28,0000.13,0000.08,18.5,24.8,09.5,06.5,0676.2,31.0
2021-06-06T00:45:00Z,00000200,00000000,0000.94,0000.60,0000.42,-000.24,0000.07,0000.04,0000.52,0000.39,0000.20,18.5,24.8,09.5,06.5,0676.2,31.0
2021-06-06T00:46:00Z,00000200,00000000,0000.68,0000.49,0000.34,-000.26,0000.37,0000.08,0000.09,0000.54,0000.54,18.5,24.8,09.6,06.5,0676.2,31.0
2021-06-06T00:47:00Z,00000200,00000000,0000.87,0000.54,0000.60,0000.61,0000.14,0000.23,0000.96,0000.57,0000.42,18.5,24.8,09.6,06.5,0676.2,31.0
2021-06-06T00:48:00Z,00000200,00000000,0000.57,0000.71,0000.26,0000.43,0000.07,0000.10,0000.20,0000.16,0000.61,18.5,24.8,09.5,06.5,0676.2,31.0
2021-06-06T00:49:00Z,00000200,00000000,0000.71,0000.29,0000.26,0000.60,0000.16,0000.21,0000.47,0000.19,-000.13,18.5,24.8,09.3,06.4,0676.2,31.0
2021-06-06T00:50:00Z,00000200,00000000,0001.22,0000.69,0000.21,0000.08,0000.42,0000.08,0000.42,0000.67,0000.05,18.5,24.8,09.4,06.4,0676.2,31.0
2021-06-06T00:51:00Z,00000200,00000000,0000.97,0000.60,0000.25,0000.32,0000.45,0000.09,0000.42,0000.45,0000.17,18.5,24.7,09.3,06.3,0676.2,31.0
2021-06-06T00:52:00Z,00000200,00000000,0001.36,0000.79,0000.44,0000.32,0000.14,0000.25,0000.43,0000.42,0000.35,18.5,24.8,09.3,06.3,0676.2,31.0
2021-06-06T00:53:00Z,00000200,00000000,0001.44,0000.61,0000.41,0000.37,0000.30,0000.24,0000.25,-000.02,0000.44,18.5,24.8,09.2,06.2,0676.2,31.0
2021-06-06T00:54:00Z,00000200,00000000,0000.61,0000.59,0000.40,-000.15,0000.31,-000.17,0000.36,0000.70,0000.27,18.4,24.7,09.2,06.3,0676.2,31.0
2021-06-06T00:55:00Z,00000200,00000000,0001.00,0000.63,0000.65,-000.07,0000.09,0000.46,0000.56,0000.32,0000.52,18.5,24.7,09.1,06.2,0676.2,31.0
2021-06-06T00:56:00Z,00000200,00000000,0000.84,0000.78,0000.38,0000.03,0000.06,0000.17,0000.44,0000.44,0000.24,18.4,24.7,09.1,06.2,0676.2,31.0
2021-06-06T00:57:00Z,00000200,40000000,,,,,,,0000.31,0000.29,0000.16,18.5,24.8,09.3,06.3,0676.2,31.0
2021-06-06T00:58:00Z,00000200,60000000,,,,,,,-000.13,-000.23,-000.22,18.2,24.9,09.3,06.1,0675.2,31.0
2021-06-06T00:59:00Z,00000200,20000000,,,,,,,-000.16,-000.09,0000.08,18.2,25.0,09.2,06.1,0675.2,31.0
